This is the latest recevied weather packets stored in our database for station/object KC3ROS. If no packets are shown the sender has not sent any weather packets the latest 10 day(s).
| Time | Temp. | Humidity | Pressure | Rain* | Wind** | Luminosity | Snow |
|---|---|---|---|---|---|---|---|
| 1777746340 | 5.56° C | 83% | 1014.7 hPa | 0 mm | - | 65 W/m² | - |
| 1777746036 | 5.56° C | 83% | 1014.8 hPa | 0 mm | - | 101 W/m² | - |
| 1777745734 | 5° C | 82% | 1014.7 hPa | 0 mm | - | 201 W/m² | - |
| 1777745433 | 5° C | 84% | 1014.9 hPa | 0 mm | - | 181 W/m² | - |
| 1777745129 | 5° C | 85% | 1014.8 hPa | 0 mm | - | 106 W/m² | - |
| 1777744826 | 5.56° C | 85% | 1014.7 hPa | 0 mm | - | 96 W/m² | - |
| 1777744520 | 5.56° C | 85% | 1014.8 hPa | 0 mm | - | 189 W/m² | - |
| 1777744216 | 5° C | 87% | 1014.7 hPa | 0 mm | - | 253 W/m² | - |
| 1777743914 | 4.44° C | 87% | 1014.8 hPa | 0 mm | - | 235 W/m² | - |
| 1777743610 | 5° C | 86% | 1014.7 hPa | 0 mm | - | 60 W/m² | - |
| 1777743307 | 5° C | 86% | 1014.7 hPa | 0 mm | - | 67 W/m² | - |
| 1777743005 | 5° C | 87% | 1014.6 hPa | 0 mm | - | 132 W/m² | - |
| 1777742702 | 4.44° C | 88% | 1014.7 hPa | 0 mm | - | 178 W/m² | - |
| 1777742398 | 4.44° C | 88% | 1014.6 hPa | 0 mm | - | 143 W/m² | - |
| 1777742094 | 5° C | 88% | 1014.8 hPa | 0 mm | - | 116 W/m² | - |
| 1777741792 | 5° C | 90% | 1014.7 hPa | 0 mm | - | 168 W/m² | - |
| 1777741488 | 4.44° C | 91% | 1014.8 hPa | 0 mm | - | 169 W/m² | - |
| 1777741184 | 4.44° C | 92% | 1014.7 hPa | 0 mm | - | 162 W/m² | - |
| 1777740881 | 4.44° C | 92% | 1014.7 hPa | 0 mm | - | 148 W/m² | - |
| 1777740573 | 4.44° C | 92% | 1014.6 hPa | 0 mm | - | 99 W/m² | - |
| 1777740269 | 3.89° C | 92% | 1014.6 hPa | 0 mm | - | 81 W/m² | - |
| 1777739965 | 3.89° C | 92% | 1014.7 hPa | 0 mm | - | 78 W/m² | - |
| 1777739662 | 3.89° C | 92% | 1014.8 hPa | 0 mm | - | 69 W/m² | - |
| 1777739360 | 3.89° C | 92% | 1014.7 hPa | 0 mm | - | 64 W/m² | - |
| 1777739056 | 3.89° C | 92% | 1014.7 hPa | 0 mm | - | 59 W/m² | - |
* Rain latest hour (hover to see other rain measurements)
** Current wind speed in m/s (hover to see current wind gust speed)